Location: Ajisawe
(8.4333°N, 4.3833°E)
Time: 09:56:22
(UTC+00:00)

Vanguard 1 - All Passes

Search period start: 19 April 2021 00:00
Search period end: 29 April 2021 00:00
Orbit: 648 x 3834 km, 34.3° (Epoch: 18 April)

Date Brightness Start Highest point End Pass type
(mag) Time Alt. Az. Time Alt. Az. Time Alt. Az.
19 Apr - 09:16:18 10° SSW 09:22:16 30° SE 09:31:54 10° ENE daylight
19 Apr - 11:34:32 10° WSW 11:43:37 69° NNW 12:00:59 10° NE daylight
19 Apr - 13:57:53 10° WNW 14:10:44 35° NNW 14:30:05 10° NE daylight
19 Apr - 16:25:20 10° NW 16:43:17 33° N 17:02:53 10° ENE daylight
19 Apr - 18:52:47 10° NW 19:15:38 51° NNE 19:32:50 10° E visible
19 Apr - 21:20:44 10° WNW 21:42:52 78° SW 21:55:40 10° SE visible
19 Apr - 23:54:15 10° W 00:05:07 22° SW 00:12:35 10° S visible
20 Apr - 09:36:18 10° SSW 09:42:49 47° SE 09:54:27 10° ENE daylight
20 Apr - 11:55:50 10° WSW 12:05:14 53° NNW 12:22:37 10° NE daylight
20 Apr - 14:20:15 10° WNW 14:33:35 32° N 14:52:38 10° NE daylight
20 Apr - 16:47:32 10° NW 17:06:35 35° NNE 17:26:13 10° ENE daylight
20 Apr - 19:14:23 10° NW 19:37:53 61° NNE 19:54:44 10° ESE visible
20 Apr - 21:42:52 10° WNW 22:03:57 62° SW 22:16:16 10° SE visible
21 Apr - 00:20:05 10° WSW 00:26:00 13° SW 00:30:48 10° SSW visible
21 Apr - 09:56:42 10° SW 10:03:33 70° SE 10:16:29 10° ENE daylight
21 Apr - 12:17:25 10° W 12:27:10 43° NNW 12:44:17 10° NE daylight
21 Apr - 14:42:41 10° WNW 14:56:40 30° N 15:15:38 10° NE daylight
21 Apr - 17:09:27 10° NW 17:29:39 39° NNE 17:49:22 10° E daylight
21 Apr - 19:35:56 10° NW 19:59:51 73° NE 20:16:17 10° ESE visible
21 Apr - 22:05:25 10° WNW 22:24:52 47° SW 22:36:36 10° SSE visible
22 Apr - 08:01:12 10° SSE 08:04:35 15° SE 08:08:52 10° E daylight
22 Apr - 10:17:26 10° WSW 10:24:32 83° NW 10:38:13 10° NE daylight
22 Apr - 12:39:17 10° WNW 12:49:22 36° NNW 13:06:07 10° NE daylight
22 Apr - 15:05:02 10° NW 15:19:52 30° N 15:39:04 10° ENE daylight
22 Apr - 17:31:06 10° NW 17:52:27 45° NNE 18:12:12 10° E visible
22 Apr - 19:57:33 10° NW 20:21:32 87° NE 20:37:32 10° SE visible
22 Apr - 22:28:35 10° WNW 22:45:44 35° SW 22:56:38 10° SSE visible
23 Apr - 08:20:21 10° S 08:25:06 27° SE 08:32:13 10° E daylight
23 Apr - 10:38:27 10° WSW 10:45:49 61° NNW 10:59:46 10° NE daylight
23 Apr - 13:01:24 10° WNW 13:11:51 31° N 13:28:17 10° NE daylight
23 Apr - 15:27:09 10° NW 15:43:04 32° NNE 16:02:45 10° ENE daylight
23 Apr - 17:52:36 10° NW 18:14:56 53° NNE 18:34:39 10° E visible
23 Apr - 20:19:20 10° WNW 20:42:58 77° SW 20:58:28 10° SE visible
23 Apr - 22:52:37 10° W 23:06:39 25° SW 23:16:15 10° S visible
24 Apr - 08:40:19 10° SSW 08:45:39 44° SE 08:54:35 10° ENE daylight
24 Apr - 10:59:47 10° W 11:07:23 46° NNW 11:21:13 10° NE daylight
24 Apr - 13:23:38 10° WNW 13:34:32 28° N 13:50:55 10° NE daylight
24 Apr - 15:49:01 10° NW 16:06:09 35° NNE 16:26:27 10° ENE daylight
24 Apr - 18:14:00 10° NW 18:37:09 63° NNE 18:56:41 10° ESE visible
24 Apr - 20:41:24 10° WNW 21:04:12 62° SW 21:19:08 10° SE visible
24 Apr - 23:18:03 10° W 23:27:44 17° SW 23:35:06 10° S visible
25 Apr - 09:00:44 10° SW 09:06:23 72° SE 09:16:26 10° ENE daylight
25 Apr - 11:21:25 10° W 11:29:14 36° NNW 11:42:42 10° NE daylight
25 Apr - 13:45:52 10° NW 13:57:24 27° N 14:14:06 10° NE daylight
25 Apr - 16:10:36 10° NW 16:29:02 39° NNE 16:49:56 10° E daylight
25 Apr - 18:35:24 10° NW 18:59:06 75° NE 19:18:21 10° ESE visible
25 Apr - 21:03:53 10° WNW 21:25:19 49° SW 21:39:33 10° SSE visible
26 Apr - 07:05:31 10° SSE 07:07:39 12° SE 07:10:04 10° ESE daylight
26 Apr - 09:21:30 10° WSW 09:27:20 76° NNW 09:37:56 10° NE daylight
26 Apr - 11:43:19 10° WNW 11:51:19 29° NNW 12:04:24 10° NE daylight
26 Apr - 14:07:55 10° NW 14:20:21 27° N 14:37:48 10° ENE daylight
26 Apr - 16:32:00 10° NW 16:51:38 46° NNE 17:13:01 10° E daylight
26 Apr - 18:56:53 10° NW 19:20:50 89° NE 19:39:40 10° SE visible
26 Apr - 21:26:58 10° WNW 21:46:23 37° SW 21:59:41 10° SSE visible
27 Apr - 07:24:21 10° S 07:28:16 24° SE 07:33:30 10° E daylight
27 Apr - 09:42:35 10° WSW 09:48:35 52° NNW 09:59:15 10° NE daylight
27 Apr - 12:05:24 10° WNW 12:13:37 25° N 12:26:25 10° NE daylight
27 Apr - 14:29:43 10° NW 14:43:16 29° NNE 15:01:49 10° ENE daylight
27 Apr - 16:53:15 10° NW 17:13:58 54° NNE 17:35:40 10° ESE daylight
27 Apr - 19:18:33 10° WNW 19:42:21 77° SW 20:00:41 10° SE visible
27 Apr - 21:50:54 10° W 22:07:33 28° SW 22:19:27 10° S visible
28 Apr - 07:44:19 10° SSW 07:48:53 42° SE 07:55:40 10° ENE daylight
28 Apr - 10:04:00 10° W 10:10:05 37° NNW 10:20:29 10° NE daylight
28 Apr - 12:27:34 10° NW 12:36:07 23° N 12:48:59 10° NE daylight
28 Apr - 14:51:15 10° NW 15:06:04 33° NNE 15:25:50 10° ENE daylight
28 Apr - 17:14:29 10° NW 17:36:04 65° NNE 17:57:52 10° ESE daylight
28 Apr - 19:40:30 10° WNW 20:03:45 63° SW 20:21:26 10° SE visible
28 Apr - 22:16:06 10° W 22:28:55 19° SW 22:38:42 10° S visible
